Sexton Summit, OR

2:04 PM PDT on September 20, 2017 (GMT -0700)
Sexton Summit

Weather History for KSXT - March, 2013

Change the Weather History Date:

Saturday, March 23, 2013

  Actual Average Record
Temperature  
Mean Temperature 34 °F -  
Max Temperature 44 °F 45 °F 66 °F (2001)
Min Temperature 26 °F 32 °F 23 °F (2009)
Degree Days  
Heating Degree Days 31    
Moisture  
Dew Point 21 °F    
Average Humidity 64    
Maximum Humidity 81    
Minimum Humidity 46    
Precipitation  
Precipitation 0.00 in - - ()
Sea Level Pressure  
Sea Level Pressure 30.25 in    
Wind  
Wind Speed 6 mph (ENE)    
Max Wind Speed 10 mph    
Max Gust Speed -    
Visibility 10 miles    
Events      
Averages and records for this station are not official NWS values.
T = Trace of Precipitation, MM = Missing Value Source: NWS Daily Summary

Daily Weather History Graph

Daily Weather History Graph

Search for Another Location

Airport or City:

Trip Planner

Search our weather history database for the weather conditions in past years. The results will help you decide how hot, cold, wet, or windy it might be!

Date:

Astronomy

Mar. 23, 2013 Rise Set
Actual Time 7:10 AM PDT 7:29 PM PDT
Civil Twilight 6:42 AM PDT 7:57 PM PDT
Nautical Twilight 6:09 AM PDT 8:31 PM PDT
Astronomical Twilight 5:35 AM PDT 9:05 PM PDT
Moon 3:58 PM PDT (3/23) 4:54 AM PDT (3/23)
Length of Visible Light 13h 15m
Length of Day
12h 18m
Waxing Gibbous, 86% of the Moon is Illuminated
Mar 23
Waxing Gibbous
Mar 27
Full
Apr 2
Last Quarter
Apr 10
New
Apr 18
First Quarter

Hourly Weather History & Observations

Time (PDT) Temp. Windchill Dew Point Humidity Pressure Visibility Wind Dir Wind Speed Gust Speed Precip Events Conditions
12:56 AM 26.1 °F 16.2 °F 21.0 °F 81% 30.31 in 10.0 mi ENE 10.4 mph - N/A   Clear
1:56 AM 26.1 °F 19.4 °F 19.9 °F 78% 30.30 in 10.0 mi East 5.8 mph - N/A   Clear
2:56 AM 26.1 °F 20.5 °F 19.0 °F 75% 30.29 in 10.0 mi East 4.6 mph - N/A   Clear
3:56 AM 26.1 °F 19.4 °F 19.9 °F 78% 30.27 in 10.0 mi ENE 5.8 mph - N/A   Clear
4:56 AM 26.1 °F 18.4 °F 19.0 °F 75% 30.26 in 10.0 mi ENE 6.9 mph - N/A   Clear
5:56 AM 26.1 °F 18.4 °F 18.0 °F 71% 30.28 in 10.0 mi ENE 6.9 mph - N/A   Clear
6:56 AM 26.1 °F 20.5 °F 18.0 °F 71% 30.29 in 10.0 mi ESE 4.6 mph - N/A   Mostly Cloudy
7:56 AM 28.0 °F 20.8 °F 21.0 °F 75% 30.28 in 10.0 mi ESE 6.9 mph - N/A   Overcast
8:56 AM 28.9 °F 25.2 °F 21.9 °F 75% 30.30 in 10.0 mi Variable 3.5 mph - N/A   Mostly Cloudy
9:56 AM 32.0 °F 26.4 °F 21.0 °F 64% 30.28 in 10.0 mi ESE 5.8 mph - N/A   Mostly Cloudy
10:56 AM 34.0 °F 31.0 °F 24.1 °F 67% 30.28 in 10.0 mi Variable 3.5 mph - N/A   Overcast
11:56 AM 34.0 °F - 27.0 °F 75% 30.28 in 10.0 mi Calm Calm - N/A   Overcast
12:56 PM 36.0 °F - 25.0 °F 64% 30.27 in 10.0 mi Calm Calm - N/A   Overcast
1:56 PM 39.0 °F 35.7 °F 25.0 °F 57% 30.24 in 10.0 mi Variable 4.6 mph - N/A   Clear
2:56 PM 39.9 °F - 21.9 °F 49% 30.23 in 10.0 mi Calm Calm - N/A   Overcast
3:56 PM 41.0 °F - 24.1 °F 51% 30.22 in 10.0 mi Calm Calm - N/A   Mostly Cloudy
4:56 PM 42.1 °F - 25.0 °F 51% 30.22 in 10.0 mi Calm Calm - N/A   Clear
5:56 PM 39.9 °F 37.8 °F 24.1 °F 53% 30.21 in 10.0 mi Variable 3.5 mph - N/A   Clear
6:56 PM 36.0 °F 29.0 °F 25.0 °F 64% 30.22 in 10.0 mi NNW 9.2 mph - N/A   Clear
7:56 PM 34.0 °F 26.6 °F 21.9 °F 61% 30.22 in 10.0 mi NNW 9.2 mph - N/A   Clear
8:56 PM 34.0 °F 26.0 °F 15.1 °F 46% 30.22 in 10.0 mi North 10.4 mph - N/A   Clear
9:56 PM 35.1 °F 29.3 °F 17.1 °F 48% 30.22 in 10.0 mi North 6.9 mph - N/A   Clear
10:56 PM 37.9 °F - 21.0 °F 51% 30.19 in 10.0 mi Calm Calm - N/A   Clear
11:56 PM 37.0 °F 33.3 °F 21.0 °F 52% 30.19 in 10.0 mi South 4.6 mph - N/A   Clear